Location: Ward Pound Ridge Reservation
(41.2500°N, 73.6000°W)
Time: 19:02:29
(UTC-04:00)

Tiangong 2 - Pass Details

Date: 16 October 2017
Orbit: 388 x 391 km, 42.8° (Epoch: 22 October)

Event Time Altitude Azimuth Distance (km) Brightness Sun altitude
Exits shadow 04:40:46 17° 77° (ENE) 1,084 4.1 -28.2°
Drops below altitude 10° 04:41:37 10° 80° (E) 1,420 4.9 -28.0°
Sets 04:43:43 0° 84° (E) 2,276 6.2 -27.6°
